Date,TemperatureHighF,TemperatureAvgF,TemperatureLowF,DewpointHighF,DewpointAvgF,DewpointLowF,HumidityHigh,HumidityAvg,HumidityLow,PressureMaxIn,PressureMinIn,WindSpeedMaxMPH,WindSpeedAvgMPH,GustSpeedMaxMPH,PrecipitationSumIn
2013-1-1,48,45,41,43,33,18,91,66,38,30.00,29.94,9,3,21,0.19
2013-1-2,43,40,37,37,35,33,96,84,68,30.05,29.95,2,0,6,0.00
2013-1-3,38,33,28,37,30,21,97,90,75,30.13,30.00,9,1,13,0.01
2013-1-4,39,31,26,21,17,12,74,58,34,30.19,30.10,11,4,24,0.00
2013-1-5,49,38,27,28,18,2,73,48,18,30.23,30.10,13,2,23,0.01
2013-1-6,48,40,34,37,32,26,89,74,55,30.08,29.97,12,2,17,0.00
2013-1-7,46,36,28,27,25,22,81,66,46,30.27,30.07,10,2,17,0.00
2013-1-8,50,40,31,43,33,23,93,76,59,30.30,30.22,5,0,9,0.00
2013-1-9,57,52,46,52,49,44,97,89,82,30.38,30.28,8,2,17,0.00
2013-1-10,57,52,44,52,49,38,94,88,76,30.43,30.29,6,2,10,0.00
2013-1-11,57,48,41,56,47,40,98,98,91,30.29,30.10,10,2,13,0.36
2013-1-12,68,60,56,60,57,54,98,91,72,30.14,30.08,10,2,18,0.00
2013-1-13,66,59,56,56,54,53,94,85,70,30.10,30.02,13,4,18,0.00
2013-1-14,58,57,56,57,56,56,98,97,95,30.08,30.04,7,3,13,0.42
2013-1-15,48,44,40,48,44,40,98,98,98,30.10,30.02,5,3,8,1.21
2013-1-16,52,51,50,49,49,48,95,91,88,29.97,29.94,4,1,9,0.56
2013-1-17,51,44,33,49,44,32,97,96,91,30.02,29.76,14,3,28,1.72
2013-1-18,34,34,33,24,24,23,69,68,67,30.34,30.32,3,3,5,0.01
2013-1-19,52,39,30,30,23,14,77,56,24,30.32,30.05,8,2,16,0.00
2013-1-20,51,44,39,33,25,11,65,49,27,30.05,29.99,11,3,22,0.00
2013-1-21,47,39,26,27,20,10,64,49,35,30.00,29.86,15,4,28,0.00
2013-1-22,27,22,16,11,1,-9,62,42,21,30.05,29.85,9,3,27,0.00
2013-1-23,39,30,20,26,17,3,68,58,47,30.14,29.92,13,2,19,0.00
2013-1-24,39,31,17,30,14,4,73,52,32,30.24,29.85,17,4,32,0.00
2013-1-25,40,25,15,37,19,2,94,79,57,30.26,29.93,12,1,18,0.09
2013-1-26,43,36,30,33,20,9,89,57,30,30.20,29.95,13,3,24,0.00
2013-1-27,35,29,22,29,24,17,93,82,54,30.34,30.20,3,1,6,0.02
2013-1-28,60,47,31,49,40,29,90,77,61,30.29,30.16,11,2,15,0.01
2013-1-29,67,58,51,55,48,39,95,70,54,30.17,30.00,11,3,16,0.05
2013-1-30,59,57,55,58,56,53,97,95,92,30.00,29.53,17,6,33,1.94
2013-1-31,32,31,30,21,19,18,68,62,56,29.89,29.83,17,4,31,0.00
2013-2-1,36,24,17,27,10,-1,83,56,39,30.14,29.79,20,4,30,0.00
2013-2-2,41,29,20,30,13,-12,94,57,19,30.14,29.89,13,2,20,0.00
2013-2-3,38,31,26,30,24,17,90,75,58,29.88,29.76,12,4,27,0.02
2013-2-4,49,37,24,25,21,16,73,54,38,29.99,29.87,8,2,17,0.00
2013-2-5,52,44,35,37,29,21,67,57,48,29.94,29.83,13,2,17,0.00
2013-2-6,54,46,37,35,24,17,73,47,24,30.15,29.92,15,2,22,0.00
2013-2-7,42,36,33,37,28,18,97,75,39,30.16,29.93,6,4,12,0.70
2013-2-8,45,38,31,44,34,23,97,86,62,29.99,29.84,11,3,19,0.02
2013-2-9,53,40,29,26,21,15,76,49,33,30.22,29.97,9,1,16,0.00
2013-2-10,45,40,36,41,30,20,96,71,45,30.23,30.07,5,1,10,0.33
2013-2-11,54,49,42,52,40,17,97,76,30,30.08,29.93,14,4,22,0.11
2013-2-12,52,43,35,34,24,15,93,49,30,30.02,29.87,11,2,19,0.12
2013-2-13,46,36,31,44,34,28,97,92,79,29.88,29.60,14,2,20,0.24
2013-2-14,50,37,27,31,26,19,88,65,30,29.96,29.77,9,2,17,0.00
2013-2-15,55,41,30,35,30,28,89,66,36,30.00,29.89,6,2,16,0.00
2013-2-16,33,27,19,27,18,9,87,71,57,29.88,29.72,8,2,19,0.00
2013-2-17,30,22,15,11,8,5,72,56,42,30.08,29.83,10,3,28,0.00
2013-2-18,48,37,25,24,19,9,60,50,37,30.19,30.06,6,2,13,0.00
2013-2-19,50,38,30,40,26,11,94,64,34,30.06,29.80,19,4,31,0.11
2013-2-20,42,33,25,14,1,-12,54,29,13,30.00,29.87,16,4,28,0.00
2013-2-21,55,41,28,31,10,-16,90,31,10,30.11,29.98,7,2,12,0.29
2013-2-22,38,33,30,37,32,29,97,96,90,30.14,29.99,3,0,5,0.27
2013-2-23,49,46,37,47,44,35,98,93,71,30.00,29.80,5,1,12,0.36
2013-2-24,52,43,35,38,27,16,84,56,30,29.96,29.80,11,2,16,0.00
2013-2-25,41,34,28,26,22,15,92,63,35,30.04,29.93,11,3,15,0.00
2013-2-26,36,31,27,35,30,26,97,95,93,29.94,29.54,8,1,14,0.00
2013-2-27,52,43,34,39,32,28,86,67,48,29.73,29.68,11,2,17,0.40
2013-2-28,34,30,27,30,24,21,86,78,67,29.80,29.64,12,2,20,0.00
2013-3-1,34,29,26,27,25,23,91,84,71,29.82,29.75,8,2,13,0.00
2013-3-2,38,29,22,26,23,17,92,79,59,29.79,29.74,8,2,18,0.01
2013-3-3,30,23,18,18,14,11,81,70,57,29.84,29.75,12,3,20,0.00
2013-3-4,50,34,20,25,13,1,73,46,13,29.98,29.83,9,2,15,0.00
2013-3-5,43,40,31,41,33,25,95,76,52,29.98,29.57,8,2,22,1.04
2013-3-6,30,26,22,25,21,17,90,82,74,29.96,29.54,22,5,32,0.00
2013-3-7,44,31,23,31,24,20,90,75,57,30.11,29.94,21,5,24,0.00
2013-3-8,52,38,27,24,17,2,78,44,24,30.19,30.08,10,3,17,0.00
2013-3-9,57,46,36,27,21,10,51,39,29,30.22,30.16,5,1,8,0.00
2013-3-10,59,50,42,34,30,25,60,49,37,30.20,30.11,6,1,9,0.00
2013-3-11,50,46,44,48,43,34,96,89,60,30.13,29.83,8,2,13,0.95
2013-3-12,50,44,37,48,35,26,96,73,44,29.94,29.75,11,3,20,0.31
2013-3-13,41,34,25,29,22,15,75,62,45,30.01,29.93,14,3,22,0.00
2013-3-14,43,30,20,18,14,10,73,52,31,30.13,30.01,12,2,17,0.00
2013-3-15,64,48,31,41,30,13,77,53,27,30.07,29.91,10,2,18,0.00
2013-3-16,72,61,52,46,43,40,65,53,36,29.90,29.78,17,4,24,0.00
2013-3-17,70,57,39,49,44,38,94,66,40,30.00,29.87,7,3,13,0.00
2013-3-18,44,36,32,43,35,31,97,96,94,30.01,29.82,10,2,12,0.54
2013-3-19,50,43,35,44,29,10,97,62,33,30.00,29.80,11,3,27,0.02
2013-3-20,49,37,28,27,12,8,90,37,22,29.99,29.77,8,2,18,0.00
2013-3-21,31,25,18,21,11,5,75,55,43,29.82,29.66,11,3,23,0.00
2013-3-22,46,33,23,27,14,5,62,46,22,29.93,29.82,11,2,17,0.00
2013-3-23,52,42,35,39,34,28,92,74,60,29.94,29.84,3,1,9,0.04
2013-3-24,40,37,34,38,36,33,96,95,85,29.86,29.56,13,5,24,0.65
2013-3-25,32,28,24,22,21,20,89,76,63,29.76,29.50,20,4,35,0.00
2013-3-26,35,28,23,29,22,18,88,78,66,30.04,29.74,10,3,28,0.10
2013-3-27,40,31,24,24,21,18,86,69,46,30.11,30.02,8,2,16,0.02
2013-3-28,46,36,26,25,20,17,75,55,32,30.18,30.08,7,2,17,0.00
2013-3-29,54,40,32,35,26,17,91,61,27,30.21,30.13,7,2,15,0.05
2013-3-30,57,46,38,43,39,35,93,77,56,30.14,30.02,8,1,14,0.61
2013-3-31,62,50,44,51,45,38,96,86,60,30.01,29.83,11,2,21,0.49
2013-4-1,58,50,43,48,37,30,93,63,48,29.94,29.84,14,3,25,0.00
2013-4-2,52,42,34,30,23,12,73,51,22,30.07,29.92,13,2,20,0.00
2013-4-3,55,45,33,26,21,15,49,40,28,30.18,30.05,6,1,10,0.00
2013-4-4,43,33,30,32,27,16,96,80,42,30.17,29.89,9,3,14,0.03
2013-4-5,36,34,32,35,33,32,96,96,96,29.92,29.83,0,0,2,0.01
2013-4-6,63,56,43,36,34,30,59,44,35,30.16,30.10,6,2,9,0.00
2013-4-7,66,55,45,45,39,33,66,57,44,30.16,30.07,10,3,14,0.00
2013-4-8,72,60,50,51,47,43,75,63,46,30.13,30.06,8,2,13,0.00
2013-4-9,79,67,58,56,53,49,74,62,43,30.20,30.10,8,2,13,0.00
2013-4-10,82,69,60,58,54,50,73,59,36,30.12,29.99,8,3,17,0.00
2013-4-11,74,65,58,60,54,51,94,70,48,30.01,29.75,11,3,17,0.70
2013-4-12,67,59,48,60,48,35,95,71,39,29.86,29.67,13,3,25,1.64
2013-4-13,66,54,46,39,33,27,66,48,24,30.02,29.80,19,3,24,0.00
2013-4-14,67,59,50,47,37,29,85,48,33,30.08,29.96,8,2,13,0.00
2013-4-15,54,51,48,53,50,46,97,96,84,30.19,29.97,5,2,11,0.30
2013-4-16,73,61,51,59,55,50,97,81,59,30.26,30.18,6,1,9,0.00
2013-4-17,70,62,57,60,56,52,94,81,66,30.26,30.14,4,1,11,0.44
2013-4-18,69,62,57,59,56,53,93,80,63,30.15,29.99,5,1,12,0.01
2013-4-19,62,57,39,59,54,33,95,89,69,29.98,29.75,13,4,23,0.65
2013-4-20,56,44,33,33,27,23,78,54,32,30.20,29.87,9,2,16,0.00
2013-4-21,56,47,40,36,30,25,72,53,41,30.34,30.20,10,4,15,0.00
2013-4-22,56,46,38,37,35,29,88,66,47,30.32,30.16,8,4,13,0.00
2013-4-23,67,52,39,45,38,27,75,59,41,30.21,30.08,7,3,11,0.00
2013-4-24,67,58,50,55,49,43,90,73,56,30.11,30.01,12,3,18,0.03
2013-4-25,65,52,38,47,29,6,89,52,12,30.24,30.05,9,2,14,0.00
2013-4-26,64,54,44,38,31,21,57,42,34,30.34,30.23,6,2,10,0.00
2013-4-27,54,51,47,49,44,37,95,78,55,30.31,30.20,2,0,4,0.75
2013-4-28,48,47,44,48,45,42,97,95,90,30.20,30.00,4,1,9,2.25
2013-4-29,65,56,48,57,52,47,97,88,68,30.04,29.96,4,1,9,0.08
2013-4-30,67,58,54,59,54,52,97,88,61,30.16,30.00,5,2,11,0.00
2013-5-1,60,53,49,54,51,48,97,92,76,30.25,30.15,9,4,15,0.00
2013-5-2,52,50,48,52,49,47,97,97,97,30.26,30.20,9,4,19,0.41
2013-5-3,50,48,46,49,48,45,97,97,97,30.20,30.07,11,6,20,0.26
2013-5-4,48,43,39,47,42,38,97,96,90,30.07,29.95,14,6,19,0.32
2013-5-5,47,43,40,47,42,39,98,97,97,29.99,29.82,14,8,25,5.03
2013-5-11,70,62,55,57,54,50,85,76,60,29.91,29.86,5,1,12,0.01
2013-5-12,60,53,45,49,38,29,86,61,36,30.00,29.87,11,2,17,0.00
2013-5-13,59,49,40,33,30,28,66,49,31,30.14,30.00,10,2,16,0.00
2013-5-14,72,57,42,50,39,28,71,52,34,30.18,30.07,6,1,12,0.00
2013-5-15,83,70,58,56,51,49,71,53,31,30.11,30.02,14,3,22,0.02
2013-5-16,78,68,63,56,52,49,73,57,42,30.08,30.01,8,1,14,0.00
2013-5-17,78,68,62,61,56,53,73,66,49,30.13,30.05,3,0,8,0.00
2013-5-18,64,61,59,61,58,54,96,91,74,30.14,30.08,2,0,5,1.32
2013-5-19,72,64,59,66,61,59,97,93,77,30.13,30.05,4,0,7,0.40
2013-5-20,76,66,59,68,62,57,97,87,71,30.15,30.06,3,1,8,0.00
2013-5-21,80,70,61,68,64,59,94,81,61,30.10,30.01,5,1,11,0.01
2013-5-22,78,65,57,67,61,55,96,88,68,30.06,29.95,13,1,14,0.68
2013-5-23,77,65,57,63,57,49,97,77,50,30.00,29.91,7,1,15,0.16
2013-5-24,64,57,49,50,44,35,89,63,41,30.18,29.91,7,2,19,0.00
2013-5-25,72,58,43,47,37,27,66,47,31,30.25,30.15,6,1,13,0.00
2013-5-26,70,60,52,51,44,38,76,56,41,30.24,30.16,5,1,12,0.01
2013-5-27,76,66,55,61,53,46,73,66,51,30.25,30.16,3,0,9,0.00
2013-5-28,80,68,60,65,58,54,84,72,55,30.23,30.16,8,1,14,0.00
2013-5-29,80,68,59,67,60,56,90,75,54,30.25,30.18,4,1,9,0.00
2013-5-30,78,67,60,65,60,57,91,78,62,30.29,30.21,6,1,9,0.00
2013-5-31,79,69,62,64,60,58,91,74,54,30.25,30.16,6,1,9,0.00
2013-6-1,80,70,64,65,61,59,89,73,54,30.17,30.08,7,1,13,0.00
2013-6-2,70,64,62,67,62,60,96,93,82,30.10,29.97,8,1,15,1.80
2013-6-3,77,67,60,65,59,54,97,78,54,30.02,29.92,4,1,11,0.02
2013-6-4,72,65,59,65,60,57,96,84,70,30.13,30.01,4,1,9,0.00
2013-6-5,71,64,60,66,61,59,97,92,82,30.14,30.03,5,1,9,0.34
2013-6-6,73,66,61,69,64,60,97,93,85,30.02,29.86,3,0,6,0.19
2013-6-7,76,65,60,66,62,58,97,90,66,29.90,29.76,4,1,14,1.11
2013-6-8,77,67,58,66,61,57,96,84,58,30.14,29.89,6,0,9,0.10
2013-6-9,76,66,63,70,63,59,97,90,77,30.18,30.10,5,1,10,1.95
2013-6-10,73,66,60,65,62,56,97,87,64,30.09,29.96,7,2,17,1.37
2013-6-11,78,69,61,63,60,58,94,74,57,30.07,29.98,6,2,17,0.11
2013-6-12,86,75,66,72,64,60,81,71,54,30.10,30.01,7,2,13,0.00
2013-6-13,85,72,64,68,62,58,88,70,50,30.00,29.80,10,3,22,0.24
2013-6-14,74,65,57,61,54,48,90,68,49,30.09,29.89,5,2,16,0.00
2013-6-15,80,70,58,62,55,46,78,60,44,30.17,30.09,4,0,10,0.00
2013-6-16,81,70,62,66,60,56,83,72,51,30.17,30.09,5,1,9,0.00
2013-6-17,78,69,63,69,64,61,96,85,67,30.10,30.02,5,1,9,0.41
2013-6-18,76,67,61,68,64,59,96,89,74,30.02,29.88,4,1,18,0.09
2013-6-19,73,66,59,66,60,55,92,81,66,30.17,29.98,2,0,7,0.03
2013-6-20,74,66,62,68,62,58,96,88,76,30.26,30.16,3,0,5,0.00
2013-6-21,76,66,61,66,61,59,96,84,61,30.29,30.23,4,0,7,0.00
2013-6-22,77,68,58,64,60,56,93,76,58,30.27,30.18,3,0,9,0.00
2013-6-23,78,68,62,69,63,59,95,84,64,30.26,30.19,2,0,4,1.04
2013-6-24,82,71,63,70,65,61,96,83,61,30.26,30.16,5,1,9,1.28
2013-6-25,81,71,65,73,66,63,96,84,62,30.20,30.10,5,1,11,0.00
2013-6-26,82,72,65,70,66,62,93,80,61,30.11,30.01,7,1,10,0.00
2013-6-27,80,70,62,70,64,58,92,82,69,30.03,29.87,10,2,17,0.23
2013-6-28,82,72,64,67,64,59,92,78,57,29.90,29.74,8,3,19,0.18
2013-6-29,80,71,63,64,60,56,86,70,49,29.81,29.74,9,1,10,0.00
2013-6-30,81,69,65,68,61,55,95,76,57,29.90,29.78,3,0,6,0.71
2013-7-1,75,67,62,69,64,60,96,91,77,30.02,29.89,4,0,8,2.33
2013-7-2,76,67,62,71,65,61,96,92,76,30.18,30.01,2,0,4,0.00
2013-7-3,72,65,60,69,64,58,97,96,92,30.24,30.16,4,0,12,4.74
2013-7-4,69,64,60,68,63,59,97,96,92,30.26,30.20,2,0,10,2.30
2013-7-5,78,68,64,71,66,63,97,91,72,30.28,30.21,4,0,6,0.30
2013-7-6,76,68,64,71,66,63,97,93,80,30.26,30.18,3,0,8,1.13
2013-7-7,78,70,65,72,66,64,97,90,74,30.22,30.15,3,1,8,0.15
2013-7-8,79,70,65,70,66,63,95,87,72,30.25,30.18,4,1,8,0.00
2013-7-9,83,73,66,73,67,63,96,82,65,30.23,30.15,6,1,9,0.01
2013-7-10,84,72,65,74,67,63,95,85,68,30.20,30.04,5,1,10,0.68
2013-7-11,75,70,65,70,66,63,96,89,77,30.04,29.97,5,1,8,0.00
2013-7-12,78,68,59,71,66,58,96,90,75,30.08,29.96,5,1,8,0.21
2013-7-13,67,63,59,66,62,58,98,97,97,30.16,30.06,6,3,11,0.08
2013-7-14,69,66,64,69,66,64,98,98,97,30.32,30.15,8,1,14,4.47
2013-7-15,74,68,65,72,66,65,98,95,80,30.37,30.32,4,1,8,0.08
2013-7-16,84,75,66,72,66,61,94,75,57,30.37,30.32,1,0,5,0.00
2013-7-17,84,73,67,74,66,62,95,79,63,30.34,30.24,6,0,9,0.23
2013-7-18,83,75,68,74,68,62,89,79,67,30.27,30.17,1,0,5,0.00
2013-7-19,83,74,68,73,68,65,93,83,67,30.20,30.09,6,0,7,0.00
2013-7-20,80,71,67,73,67,65,95,88,66,30.12,30.03,7,1,9,0.04
2013-7-21,80,70,66,72,66,63,95,87,67,30.09,30.02,7,1,11,1.52
2013-7-22,81,72,65,73,66,62,94,83,65,30.07,29.93,6,2,12,0.24
2013-7-23,80,70,65,68,64,62,93,81,61,30.00,29.90,7,2,16,0.01
2013-7-24,82,73,67,68,64,61,88,75,58,29.95,29.86,6,1,15,0.00
2013-7-25,78,68,63,70,64,60,95,85,74,30.10,29.93,3,0,6,0.00
2013-7-26,80,69,62,70,64,59,94,85,68,30.15,30.09,2,0,5,0.00
2013-7-27,75,67,63,70,65,61,97,93,72,30.09,29.98,5,1,11,2.69
2013-7-28,69,64,62,64,62,61,97,94,74,30.05,29.98,1,0,5,0.02
2013-9-6,64,63,62,60,59,59,88,87,85,30.17,30.17,1,0,2,0.00
2013-9-7,79,68,57,66,60,56,96,79,58,30.17,30.06,6,0,10,0.00
2013-9-8,78,70,65,67,63,58,87,78,64,30.09,30.03,3,0,7,0.00
2013-9-9,78,71,66,70,64,61,88,81,71,30.21,30.09,3,0,5,0.00
2013-9-10,84,72,64,71,65,60,89,79,64,30.29,30.21,3,0,7,0.00
2013-9-11,81,72,66,71,65,60,89,80,68,30.28,30.17,4,1,8,0.00
2013-9-12,81,71,62,69,65,59,92,81,63,30.16,29.94,8,1,16,0.16
2013-9-13,72,64,55,61,55,46,92,74,57,29.95,29.89,5,1,15,0.03
2013-9-14,68,58,48,58,51,45,92,78,63,30.14,29.95,3,0,8,0.00
2013-9-15,70,61,54,62,56,51,92,85,73,30.22,30.14,3,0,6,0.00
2013-9-16,76,67,60,62,58,54,90,75,46,30.20,30.14,8,1,9,0.00
2013-9-17,63,58,54,57,54,51,92,86,77,30.30,30.20,6,2,10,0.00
2013-9-18,62,56,51,57,54,50,95,90,80,30.27,30.18,2,0,4,0.00
2013-9-19,72,63,57,66,60,55,96,90,78,30.20,30.13,4,0,7,0.00
2013-9-20,78,68,62,68,63,60,94,84,67,30.13,30.00,4,1,8,0.00
2013-9-21,65,62,56,63,60,55,96,93,86,30.00,29.78,8,1,21,1.30
2013-9-22,70,60,53,60,55,50,96,83,63,29.95,29.80,5,0,10,0.01
2013-9-23,65,59,52,59,55,50,94,87,75,30.08,29.95,3,0,5,0.00
2013-9-24,69,61,54,63,57,51,94,86,76,30.09,29.98,3,0,4,0.00
2013-9-25,59,57,55,57,56,54,97,96,93,29.98,29.91,2,0,6,1.07
2013-9-26,63,57,51,59,54,49,97,89,73,30.08,29.91,5,0,5,0.01
2013-9-27,69,59,52,61,54,49,93,84,71,30.19,30.08,3,0,6,0.00
2013-9-28,63,57,53,57,54,51,96,90,79,30.24,30.17,2,0,8,0.00
2013-9-29,66,57,50,58,53,48,96,86,71,30.18,30.06,3,0,7,0.00
2013-9-30,66,59,52,59,55,51,96,87,74,30.10,30.04,1,0,4,0.00
2013-10-1,74,63,56,62,56,53,91,77,53,30.17,30.08,3,0,7,0.00
2013-10-2,74,65,59,62,57,53,85,77,59,30.19,30.12,5,0,7,0.00
2013-10-3,74,66,61,66,59,56,83,78,64,30.17,30.12,4,0,8,0.00
2013-10-4,77,67,61,66,61,57,88,79,63,30.20,30.13,5,0,9,0.00
2013-10-5,78,69,63,67,61,58,86,77,63,30.19,30.11,2,0,5,0.00
2013-10-6,78,68,61,66,61,58,90,80,64,30.12,29.96,4,0,6,0.00
2013-10-7,68,60,52,61,55,46,96,84,67,30.02,29.87,6,1,12,1.64
2013-10-8,60,52,48,51,46,39,88,79,67,30.19,30.01,8,2,15,0.00
2013-10-9,54,48,45,45,41,37,89,76,63,30.21,30.13,4,2,8,0.00
2013-10-10,70,59,49,55,49,43,82,71,55,30.13,30.03,9,1,9,0.00
2013-10-11,71,62,55,54,51,49,83,69,46,30.04,29.99,4,1,9,0.04
2013-10-12,68,61,57,58,53,48,93,76,63,30.12,30.01,4,0,11,0.00
2013-10-13,66,60,56,61,57,54,97,92,80,30.22,30.12,4,1,9,0.15
2013-10-14,59,57,54,58,56,54,98,98,97,30.23,30.16,6,2,12,0.13
2013-10-15,56,53,51,55,53,50,98,98,97,30.19,30.08,6,1,11,0.04
2013-10-16,63,56,50,59,54,48,98,92,77,30.09,29.99,2,0,8,0.00
2013-10-17,64,58,54,62,56,52,97,93,86,29.99,29.88,5,1,11,0.13
2013-10-18,63,54,46,55,50,43,97,87,71,30.02,29.92,11,1,14,0.02
2013-10-19,60,54,47,53,48,41,98,83,56,29.98,29.86,5,1,14,0.00
2013-10-20,58,48,39,45,40,27,85,74,44,30.06,29.92,6,1,14,0.00
2013-10-21,64,52,44,51,46,39,93,82,60,30.09,29.99,8,1,11,0.00
2013-10-22,63,55,51,51,46,42,90,71,51,30.00,29.82,7,2,12,0.00
2013-10-23,51,43,33,44,34,25,85,70,50,29.95,29.74,16,3,21,0.00
2013-10-24,48,39,32,33,29,24,80,69,53,30.08,29.93,15,3,21,0.00
2013-10-25,44,35,27,31,24,21,84,67,47,30.23,30.09,13,1,19,0.00
2013-10-26,52,40,29,42,28,18,78,62,27,30.22,30.00,9,1,16,0.00
2013-10-27,61,52,43,47,42,36,83,70,53,30.09,29.99,7,2,16,0.00
2013-10-28,58,53,50,52,48,46,92,86,76,30.22,30.08,3,0,9,0.09
2013-10-29,63,55,49,54,49,47,94,80,68,30.30,30.20,3,0,6,0.00
2013-10-30,70,60,53,55,52,49,90,77,54,30.26,30.17,5,1,11,0.00
2013-10-31,60,58,56,57,53,51,95,83,73,30.18,29.91,7,1,11,0.01
2013-11-1,70,60,52,58,53,41,96,79,35,29.87,29.71,10,2,21,0.10
2013-11-2,56,49,41,44,38,32,78,66,48,29.94,29.76,10,2,17,0.00
2013-11-3,53,44,38,35,32,27,85,64,45,30.27,29.94,6,1,12,0.00
2013-11-4,49,41,35,30,28,26,76,61,43,30.39,30.27,11,3,15,0.00
2013-11-5,50,40,31,41,30,25,88,69,39,30.41,30.33,10,3,11,0.00
2013-11-6,59,51,44,51,48,41,97,90,72,30.33,30.11,4,1,8,0.00
2013-11-7,56,48,36,53,43,26,95,82,59,30.11,29.99,10,2,21,0.04
2013-11-8,50,40,33,26,19,13,71,46,25,30.20,30.06,8,2,16,0.00
2013-11-9,53,44,35,28,22,10,55,43,20,30.23,30.12,8,1,15,0.00
2013-11-10,59,50,44,33,25,7,58,39,17,30.18,30.10,13,3,20,0.00
2013-11-11,55,47,43,28,20,2,51,36,16,30.24,30.07,10,2,14,0.00
2013-11-12,52,40,19,35,21,9,67,50,27,30.26,30.00,11,2,18,0.00
2013-11-13,41,29,18,15,10,3,68,46,27,30.34,30.24,7,1,12,0.00
2013-11-14,54,42,34,20,12,5,41,29,19,30.30,30.21,8,2,11,0.00
2013-11-15,52,46,41,47,34,-1,97,70,16,30.22,30.12,5,1,13,0.14
2013-11-16,50,48,46,50,48,46,98,98,96,30.20,30.13,3,0,5,0.02
2013-11-17,57,53,50,57,53,50,99,98,96,30.16,29.89,7,1,16,0.47
2013-11-18,60,52,40,58,37,25,99,61,35,29.97,29.85,10,2,19,0.04
2013-11-19,49,41,35,27,21,18,62,46,34,30.14,29.92,12,3,20,0.00
2013-11-20,41,35,28,27,24,23,83,67,49,30.32,30.15,11,6,17,0.00
2013-11-21,48,38,33,47,33,26,98,83,74,30.36,30.29,8,2,12,0.13
2013-11-22,62,55,47,56,53,47,98,92,79,30.31,30.11,5,2,14,0.07
2013-11-23,53,42,27,51,36,17,94,80,58,30.10,30.04,9,3,19,0.01
2013-11-24,33,25,18,17,6,-2,66,46,26,30.30,30.08,6,1,11,0.00
2013-11-25,32,25,19,25,7,-2,90,48,37,30.31,30.16,3,1,6,0.00
2013-11-26,46,37,26,46,37,23,98,97,85,30.16,29.61,10,2,15,2.51
2013-11-27,41,27,18,41,24,10,98,85,67,30.02,29.53,17,3,24,0.05
2013-11-28,40,28,17,21,15,2,84,59,33,30.30,30.02,9,1,14,0.00
2013-11-29,49,38,30,24,17,3,70,44,26,30.43,30.29,13,2,15,0.00
2013-11-30,38,30,23,22,20,17,87,67,52,30.44,30.23,9,2,13,0.00
2013-12-1,54,44,34,35,31,16,76,62,41,30.22,29.96,11,2,14,0.00
2013-12-2,52,44,38,38,34,31,82,68,55,29.95,29.79,5,0,6,0.00
2013-12-3,55,46,42,46,44,36,97,90,69,29.93,29.82,5,1,11,0.00
2013-12-4,55,50,47,54,50,46,98,97,90,30.06,29.92,3,1,12,0.00
2013-12-5,64,58,54,61,57,53,98,95,86,30.09,30.01,11,1,16,0.38
2013-12-6,65,62,53,61,59,52,98,90,81,30.04,29.97,11,4,21,0.58
2013-12-7,56,46,36,53,43,35,97,90,79,30.27,30.00,11,3,16,0.00
2013-12-8,36,31,29,34,30,28,98,97,95,30.26,30.11,12,2,18,0.40
2013-12-9,56,48,30,56,47,29,99,96,81,30.11,29.98,11,2,17,0.42
2013-12-10,50,38,26,49,32,12,98,80,54,30.16,29.86,10,2,26,0.28
2013-12-11,47,36,26,20,10,-1,58,36,22,30.27,30.16,11,2,19,0.00
2013-12-12,34,29,24,15,8,-1,64,43,23,30.24,30.12,12,3,19,0.00
2013-12-13,44,36,29,19,12,1,50,37,26,30.21,30.13,10,1,13,0.00
2013-12-14,44,36,30,43,30,18,98,81,47,30.15,29.73,11,1,11,0.68
2013-12-15,44,33,26,44,29,23,98,87,75,29.98,29.70,10,3,21,0.01
2013-12-16,49,40,30,28,24,22,80,55,40,30.05,29.98,10,3,19,0.00
2013-12-17,55,44,32,31,27,20,68,53,36,30.05,29.88,11,3,23,0.00
2013-12-18,42,34,26,19,5,-10,63,34,12,30.17,29.95,10,3,16,0.00
2013-12-19,61,50,42,24,20,9,39,30,23,30.21,30.14,12,3,17,0.00
2013-12-20,61,50,44,47,31,20,87,51,28,30.15,30.08,10,2,17,0.00
2013-12-21,60,56,51,59,54,47,98,94,88,30.10,30.00,11,4,19,0.29
2013-12-22,61,56,54,59,55,52,99,96,88,30.05,29.97,8,2,19,2.71
2013-12-23,55,45,30,55,44,29,99,94,85,30.08,29.98,14,2,18,0.35
2013-12-24,30,25,19,29,19,13,94,78,61,30.23,30.05,10,2,19,0.00
2013-12-25,31,24,16,14,10,1,87,59,42,30.30,30.18,4,1,7,0.00
2013-12-26,44,35,25,24,17,12,61,48,36,30.22,30.14,12,2,18,0.00
2013-12-27,44,37,30,23,20,18,65,51,41,30.31,30.21,3,0,6,0.00
2013-12-28,51,43,37,38,25,13,96,51,31,30.28,30.04,9,2,13,0.34
2013-12-29,48,40,34,44,37,31,98,89,76,30.03,29.75,10,3,20,0.64
2013-12-30,43,38,33,36,33,24,89,82,69,30.02,29.88,12,2,18,0.00
2013-12-31,37,33,29,23,16,12,68,50,37,30.23,30.01,17,2,24,0.00
2014-1-1,44,36,32,26,19,6,76,51,28,30.23,30.02,6,1,8,0.00
2014-1-2,46,36,15,44,31,10,96,83,61,30.02,29.62,10,3,20,0.22